Regional Weather Roundup
Issued by NWS Pendleton, OR

Home | Current Version | Previous Version | Text Only | Print | Product List | Glossary On
Versions: 1 2 3 4 5 6 7 8 9 10 11 12 13 14 15 16 17 18 19 20 21 22 23 24 25 26 27 28 29 30 31 32 33 34 35 36 37 38 39 40 41 42 43 44 45 46 47 48 49 50
000
ASUS46 KPDT 261425
RWRPDT
PENDLETON REGIONAL WEATHER ROUNDUP
NATIONAL WEATHER SERVICE PENDLETON OREGON
600 AM PST MON JAN 26 2015

NOTE: FAIR INDICATES FEW OR NO CLOUDS BELOW 12,000 FEET WITH NO
SIGNIFICANT WEATHER AND/OR OBSTRUCTIONS TO VISIBILITY.

# INDICATES UNOFFICIAL STATION AND DATA

WAZ520-261510-
EAST SLOPES OF WASHINGTON CASCADES

CITY            SKY/WX      TMP DP  RH  WIND    PRES   REMARKS
#BULLFROG 2SW   N/A         30  31  100 CALM    27.65R
#BUMPING DAM    N/A         27  N/A N/A CALM    N/A
#CLE ELUM HS    N/A         30  29  96  CALM    30.04R
#CLE ELUM LAKE  N/A         36  33  89  CALM    30.05R
#CLIFFDEL 2NW   N/A         30  29  96  CALM    N/A
#GLENWOOD       N/A         28  27  96  CALM    30.09F
#MANASTASH CYN  N/A         31  26  81  CALM    30.01F
#NELSON         N/A         30  29  96  CALM    30.15R
#NELSON 3SW     N/A         32  31  96  CALM    30.32R
#NILE           N/A         30  29  96  W2      29.35F
#RONALD 2NW     N/A         34  26  72  CALM    29.91R
#SNOWDEN        N/A         31  26  81  CALM    N/A
#TEANAWAY 4NE   N/A         30  30  100 CALM    N/A
#TROUT LAKE 1NE N/A         30  29  96  CALM    30.07F
$$

WAZ521-261510-
SIMCOE HIGHLANDS

CITY            SKY/WX      TMP DP  RH  WIND    PRES   REMARKS
#BICKLETON HS   N/A         51  30  44  W3      N/A
#CENTERVILLE 4W N/A         36  34  92  E3      29.80F
#GOLDENDALE     N/A         34  34  100 CALM    N/A
#GOLDENDALE 1NE N/A         34  33  96  CALM    N/A
#GOLDENDALE 1S  N/A         31  30  96  CALM    30.03F
#GOLDENDALE 5WNWN/A         34  33  96  CALM    30.06F
#GOODNOE HILLS  N/A         35  32  89  CALM    N/A
#LYLE 6NE       N/A         37  36  96  CALM    30.05F
$$

WAZ026-261510-
KITTITAS VALLEY

CITY            SKY/WX      TMP DP  RH  WIND    PRES   REMARKS
ELLENSBURG AP   FOG         33  31  92  CALM    30.07S VSB 1/4
#ELLENSBURG CWU N/A         33  32  96  CALM    30.07S
#ELLENSBURG 3NE N/A         30  29  96  CALM    30.08S
#ELLENSBURG 1E  N/A         32  31  96  CALM    N/A
#KITTITAS 4N    N/A         28  26  92  CALM    28.37S
#KITTITAS 3S    N/A         33  32  96  CALM    30.10F
#THORP 6N       N/A         36  34  92  CALM    30.11R
$$

WAZ027-261510-
YAKIMA VALLEY

CITY            SKY/WX      TMP DP  RH  WIND    PRES   REMARKS
YAKIMA AIRPORT  FOG         35  33  92  SW3     30.09F VSB 1/4
YAKIMA-VAGABOND FOG         34  33  96  SE2     30.08S VSB 3/8
#DONALD 2NE     N/A         36  35  96  CALM    28.93F
#GRANDVIEW      N/A         36  34  92  E1      30.15S
#MABTON         N/A         37  37  100 CALM    30.10F
#MOXEE 2E       N/A         40  40  100 E2      30.12S
#NACHES 2SW     N/A         30  29  96  CALM    30.05F
#OUTLOOK DOT    N/A         N/A N/A N/A CALM    N/A
#SELAH 8E       N/A         29  29  100 E2      N/A
#TERRACE HTS    N/A         34  33  96  CALM    30.10S
#TOPPENISH      N/A         36  35  96  CALM    30.04F
#WAPATO 4NE     N/A         36  35  96  CALM    28.93F
#WEST VALLEY    N/A         33  32  96  CALM    30.11F
#W YAKIMA       N/A         34  33  96  CALM    30.13F
#WHITE SWAN 5E  N/A         35  34  96  CALM    30.13F
#WILEY CITY 3W  N/A         32  29  89  CALM    30.10F
$$

WAZ028-261510-
LOWER COLUMBIA BASIN...WASHINGTON

CITY            SKY/WX      TMP DP  RH  WIND    PRES   REMARKS
PASCO           FOG         38  38  100 CALM    30.13S VSB 1/2
PROSSER AWOS    N/A         36  36  100 E2      30.14F
RICHLAND AWOS   FOG         37  N/A N/A CALM    30.13S VSB 1/2
#BASIN CITY 5SW N/A         36  35  96  CALM    30.10F
#CONNELL 5N     N/A         33  33  100 CALM    30.12F
#CONNELL 5NW    N/A         33  33  100 N1      30.08F
#ELTOPIA 6NW    N/A         36  36  100 CALM    29.05F
#KAHLOTUS       N/A         33  32  96  CALM    30.12F
#KENNEWICK      N/A         30  31  100 CALM    27.65R
#KENNEWICK 3S   N/A         37  36  96  CALM    30.14S
#PASCO-BROADMOORN/A         38  36  92  CALM    30.04F
#PATERSON       N/A         37  36  96  CALM    30.11S
#PROSSER        N/A         35  34  96  NE2     30.14S
#SAGEMOOR 2W    N/A         37  37  100 CALM    29.98F
#TOUCHET 2S     N/A         37  36  96  E1      30.13F
#WEST PASCO     N/A         39  37  92  CALM    30.07F
$$

WAZ029-261510-
FOOTHILLS OF THE BLUES...WASHINGTON

CITY            SKY/WX      TMP DP  RH  WIND    PRES   REMARKS
WALLA WALLA AP  FOG         34  33  96  CALM    30.09S VSB 1/4
#DAYTON SCHOOL  N/A         31  27  85  SE1     30.09S
#LOWDEN 2SE     N/A         36  35  96  E1      30.08F
#PLEASANT VIEW 1N/A         31  30  96  CALM    30.14S
#PRESCOTT       N/A         35  34  96  CALM    30.10F
#SUDBURY        N/A         40  N/A N/A CALM    N/A
#WHITMAN COLLEGEN/A         35  34  96  CALM    30.18S
#WAITSBURG 5S   N/A         31  30  96  W2      30.20R
#WAITSBURG 8N   N/A         31  24  75  S1      29.94S
#WALLA WALLA 5E N/A         33  32  96  SE2     N/A
#WALLA WALLA U  N/A         36  35  96  CALM    30.13F
#WHITMAN MISSIONN/A         36  35  96  CALM    30.14F
$$

WAZ030-261510-
BLUE MOUNTAINS...WASHINGTON

CITY            SKY/WX      TMP DP  RH  WIND    PRES   REMARKS
#DIXIE 5SE      N/A         66  28  24  SW8     30.14S
#SKI BLUEWOOD   N/A         46  34  63  SE2     30.12F
$$

ORZ009-041-WAZ024-261510-
COLUMBIA RIVER GORGE

CITY            SKY/WX      TMP DP  RH  WIND    PRES   REMARKS
HOOD RIVER AP   CLOUDY      41  41  100 CALM    30.09F FOG
THE DALLES AP   CLOUDY      41  39  93  E8      30.11F FOG
#ARLINGTON AIRPON/A         36  35  96  CALM    30.02R
#ARLINGTON HS   N/A         38  37  96  CALM    30.07S
#CELILO DOT     N/A         40  36  85  NE3     N/A
#LYLE           N/A         42  41  96  SE2     30.12F
#MOSIER 1S      N/A         40  39  96  CALM    30.12S
#MURDOCK        N/A         42  41  96  E6      30.13F
#RUFUS DOT      N/A         40  37  89  CALM    N/A

$$

ORZ510-261510-
NORTH CENTRAL OREGON

CITY            SKY/WX      TMP DP  RH  WIND    PRES   REMARKS
#CHENOWITH 1W   N/A         36  36  100 E5      N/A
#COW CYN RST AREN/A         52  36  54  SW5     N/A
#DUFUR 9E       N/A         34  33  96  S2      30.09S
#GRASS VALLEY 1SN/A         32  31  96  CALM    30.11R
#KENT DOT       N/A         47  30  51  NW5     N/A
#MAUPIN SCHOOL  N/A         39  37  92  CALM    30.08S
#MORO SCHOOL    N/A         35  35  100 CALM    30.07F
#SHANIKO 5WSW   N/A         52  27  38  S14     N/A
#SHANIKO 4NW    N/A         51  34  52  S13     30.03S
#TYGH VALLEY 2NEN/A         38  37  96  CALM    30.07F
#WAPANITIA AIRPON/A         32  31  96  CALM    30.07S
#WASCO DOT      N/A         36  35  96  E3      N/A
#WASCO AIRPORT  N/A         35  33  92  S2      N/A
#WASCO 5NE      N/A         34  33  96  CALM    30.10F
$$

ORZ511-261510-
CENTRAL OREGON

CITY            SKY/WX      TMP DP  RH  WIND    PRES   REMARKS
BEND AIRPORT    CLEAR       48  32  54  SE8     30.10R
MADRAS AIRPORT  N/A         50  36  58  S7      30.05S
PRINEVILLE AP   CLEAR       46  34  63  CALM    30.11R
REDMOND AIRPORT CLEAR       43  33  67  E8      30.07S
#BEND 1SW       N/A         43  35  73  SW2     N/A
#BEND-AWBREY    N/A         53  35  50  SW13    30.00R
#BEND-KIM LN    N/A         46  36  68  SW6     30.05S
#CROOKED RVR RANN/A         54  36  50  S2      29.99F
#CULVER         N/A         58  36  44  SE7     29.98S
#LAKE BILLY CHINN/A         43  27  53  SE1     30.15S
#POWELL BUTTE 3EN/A         49  34  56  E8      N/A
#POWELL BUTTE   N/A         48  33  56  S3      29.71R
#PRINEVILLE 3N  N/A         35  31  85  N1      30.06R
#WARM SPRINGS   N/A         32  31  96  CALM    30.02F

$$


ORZ509-261510-
EAST SLOPES OF OREGON CASCADES

CITY            SKY/WX      TMP DP  RH  WIND    PRES   REMARKS
#BLUE BOX PASS  N/A         49  -3  11  CALM    N/A
#CAMP SHERMAN   N/A         27  25  92  CALM    30.13R
#LA PINE DOT    N/A         29  27  92  CALM    N/A
#LA PINE 4NW    N/A         29  26  88  CALM    30.16F
#LAVA BUTTE DOT N/A         36  30  79  CALM    N/A
#MT BACHELOR-MIDN/A         47  18  31  E20G28  N/A    WCI 40
#SISTERS AIRPOR N/A         27  27  100 CALM    30.17S
#SISTERS ODOT   N/A         29  N/A N/A CALM    N/A
#SISTERS 1NW    N/A         31  29  92  NE5     N/A
#SISTERS 3N     N/A         28  23  81  W2      30.07S
#SUNRIVER       N/A         28  27  96  CALM    30.03S
#TUMALO 3W      N/A         57  31  37  S3      29.88R
#WANOGA BUTTE D N/A         46  27  47  W7      N/A

$$

ORZ044-261510-
LOWER COLUMBIA BASIN...OREGON

CITY            SKY/WX      TMP DP  RH  WIND    PRES   REMARKS
HERMISTON       CLOUDY      37  36  96  N6      30.10F FOG
#BOARDMAN 3W    N/A          0   0  100 W1      29.85S
#BOARDMAN 8SW   N/A         37  36  96  N2      30.13S
#ECHO 8SW       N/A         37  37  100 CALM    30.07F
#IONE SCHOOL    N/A         35  26  69  W1      30.08R
#IRRIGON 4NW    N/A         38  38  100 S1      N/A
#UMATILLA SCHOOLN/A         35  35  100 CALM    30.16R
#UMATILLA       N/A         38  35  89  CALM    30.09F
$$

ORZ507-261510-
NORTHERN FOOTHILLS OF THE BLUES

CITY            SKY/WX      TMP DP  RH  WIND    PRES   REMARKS
PENDLETON AIRPT FOG         33  33  100 W5      30.06R VSB<1/4
#ADAMS 3WNW     N/A         30  28  92  E1      30.08R
#ATHENA         N/A         32  30  92  CALM    30.10S
#HELIX SCHOOL   N/A         34  32  92  CALM    30.07R
#HELIX 3N       N/A         31  30  96  E1      30.01S
#HOLDMAN 5SE    N/A         34  33  96  CALM    30.06F
#HOLDMAN 6E     N/A         31  30  96  SW3     29.88S
#M-F FERNDALE   N/A         35  34  96  CALM    30.09S
#M-F GROVE ELEM N/A         34  32  92  CALM    30.07S
#M-FREEWATER 5SEN/A         32  31  96  CALM    30.08S
#PENDLETON DNTN N/A         35  32  89  CALM    28.88S
#PDT AQUATIC CTRN/A         35  31  85  CALM    30.07S
#PENDLETON 5NE  N/A         31  30  96  CALM    30.03R
#PDT SUNRIDGE   N/A         33  32  96  CALM    30.09S
#PENDLETON 7NW  N/A         35  33  92  CALM    27.53S
#PILOT ROCK     N/A         32  28  85  CALM    30.08R
#TUTUILLA       N/A         33  31  92  CALM    30.09S
#UMAPINE 2E     N/A         36  35  96  E1      30.07F
#WESTON SCHOOL  N/A         31  29  92  CALM    30.06S

$$

ORZ508-261510-
SOUTHERN FOOTHILLS OF THE BLUES

CITY            SKY/WX      TMP DP  RH  WIND    PRES   REMARKS
LEXINGTON       FOG         34  34  100 N5      30.09R VSB<1/4
#AJAX           N/A         35  29  78  CALM    29.98R
#CONDON SCHOOL  N/A         55  37  51  CALM    29.99R
#CONDON 5W      N/A         52  33  48  S5      30.01S
#FOSSIL SCHOOL  N/A         57  35  43  E6      30.01S
#HEPPNER EOC    N/A         35  32  89  NW5     30.00F
#HEPPNER 4NE    N/A         57  36  45  S2      29.98F
#LEXINGTON 2SE  N/A         34  32  92  W5      30.02R
#MIKKALO        N/A         34  34  100 CALM    30.07R
#OLEX 4N        N/A         35  34  96  CALM    30.09S
#RUGGS 5NE      N/A         58  32  37  S3      30.17F
#RUGGS 2SW      N/A         54  35  48  SW7     29.97F

$$

ORZ502-503-261510-
BLUE MOUNTAINS

CITY            SKY/WX      TMP DP  RH  WIND    PRES   REMARKS
MEACHAM         PTCLDY      43  34  70  VRB3    30.12R
#BATTLE MTN DOT N/A         44  36  73  S10     N/A
#HARDMAN 10S    N/A         41  32  70  CALM    30.19F
#HEPPNER 15SE   N/A         57  31  37  E1      29.98R
#LADD CYN SMT   N/A         36  29  75  E31G39  N/A    WCI 23
#LADD CREEK ODOTN/A         40  30  67  S9      N/A
#LONG CREEK HS  N/A         49  36  61  CALM    30.05F
#N POWDER DOT   N/A         31  30  96  SW7     N/A
#PIKES PEAK     N/A         61  31  32  S12     27.99S
#TOLLGATE       N/A         44  34  68  SW5     30.06F
#TROY SCHOOL    N/A         33  31  92  CALM    30.13F
#UKIAH          N/A         25  24  96  CALM    30.23F
#WESTON 4E      N/A         49  36  61  SE22G35 29.96S WCI 42
$$

ORZ505-261510-
JOHN DAY BASIN

CITY            SKY/WX      TMP DP  RH  WIND    PRES   REMARKS
JOHN DAY        CLEAR       49  34  56  SE8     30.14F
#JOHN DAY KJDY  N/A         34  34  100 NE1     30.18F
#DAYVILLE SCHOOLN/A         42  33  70  CALM    30.09S
#MONUMENT HS    N/A         34  31  89  CALM    30.14R
#MT. VERNON 5SE N/A         47  36  65  E9G24   30.11S
#WINLOCK        N/A         48  33  56  SW3     30.17S
$$

ORZ506-261510-
OCHOCO AND JOHN DAY HIGHLANDS

CITY            SKY/WX      TMP DP  RH  WIND    PRES   REMARKS
#HORSE RIDGE DO N/A         47  29  49  CALM    N/A
#KEYES SMT DOT  N/A         51  30  44  S12     N/A
#PAULINA SCHOOL N/A         57  40  53  CALM    30.13R
#PINE MTN OBS   N/A         46  28  49  S15     N/A    WCI 40
#PRAIRIE CITY   N/A         31  26  81  SE1     30.30F
#SENECA         N/A         35  N/A N/A CALM    N/A
#SENECA 9NW     N/A         28  27  96  CALM    30.27F
$$

ORZ049-261510-
GRANDE RONDE VALLEY

CITY            SKY/WX      TMP DP  RH  WIND    PRES   REMARKS
LA GRANDE       PTCLDY      41  28  59  S28G43  30.19S WCI 30
#COVE           N/A         31  26  81  NE3     30.03S
#COVE SCHOOL    N/A         33  31  92  E1      30.14F
#COVE 6NW       N/A         37  32  82  CALM    30.30F
#ELGIN 3N       N/A         40  30  67  SW14    29.98F WCI 32
#ELGIN 1E       N/A         39  33  79  S1      N/A
#IMBLER SCHOOL  N/A         39  33  79  S20     30.14F WCI 29
#ISLAND CITY 4N N/A         41  41  100 CALM    30.00F
#LADD CYN DOT   N/A         40  31  70  S29G44  N/A    WCI 29
#UNION 1S       N/A         37  33  85  S24G35  30.16F WCI 26
$$

ORZ050-261510-
WALLOWA COUNTY

CITY            SKY/WX      TMP DP  RH  WIND    PRES   REMARKS
JOSEPH AIRPORT  FOG         32  32  100 CALM    30.18F VSB 1/4
#ENTERPRISE AP  N/A         29  27  92  CALM    30.11F
#ENTERPRISE HS  N/A         30  29  96  CALM    30.18F
#IMNAHA SCHOOL  N/A         56  38  51  S8      30.12F
#IMNAHA 10S     N/A         56  36  47  SW6     30.13F
#JOSEPH 3N      N/A         30  30  100 CALM    30.18F
#JOSEPH 3W      N/A         28  24  85  SE3     29.96F
#LOSTINE        N/A         28  27  96  CALM    30.11F
#MT HOWARD 8000 N/A         49  20  31  S21G38  30.25F WCI 42
#PROMISE 1S     N/A         36  32  85  SW2     30.33F
#SHEEP RDG 7000 N/A         53  20  27  CALM    30.00F
#WALLOWA SCHOOL N/A         29  28  96  CALM    31.30F



$$



USA.gov is the U.S. government's official web portal to all federal, state and local government web resources and services.